Home > Weather > Antananarivo > Past weeks

Flag for Madagascar Past Weather in Antananarivo, Madagascar — Yesterday and Last 2 Weeks

Now
55 °F

Passing clouds.


Feels Like: 55 °F
Forecast: 50 / 74 °F
Wind: No wind

Location: Antananarivo / Ivato

Current Time: Jul 31, 2016 at 8:47:00 AM

Latest Report: Jul 31, 2016 at 8:00 AM


Visibility: 5 mi

Pressure: 30.21 "Hg (25.91 "Hg at 1287m altitude)

Humidity: 72%

Dew Point: 46 °F

Location of AntananarivoLocation

Past Weather in Antananarivo — Graph

°F

Antananarivo Temperature Yesterday

Maximum temperature yesterday: 75 °F (at 4:30 PM)
Minimum temperature yesterday: 43 °F (at 6:00 AM)
Average temperature yesterday: 59 °F

High & Low Weather Summary for the Past Weeks

 TemperatureHumidityPressure
High75 °F (Jul 30, 4:30 PM)100% (Jul 18, 2:30 AM)30.36 "Hg (Jul 18, 2:30 AM)
Low43 °F (Jul 20, 6:00 AM)24% (Jul 30, 4:30 PM)30.09 "Hg (Jul 30, 3:00 PM)
Average59 °F76%30.26 "Hg
* Reported Jul 16 7:00 AM — Jul 31 7:30 AM, Antananarivo, Weather by CustomWeather, © 2016

Note: Actual official high and low records may vary slightly from our data, if they occured in-between our weather recording intervals... More about our weather records

Advertising

Antananarivo Weather History for the Previous 24 Hours

Scroll right to see more
 ConditionsComfort  
Time TempWeatherWind HumidityBarometerVisibility
7:30 AM
Sun, Jul 31
54 °FPassing clouds.No wind82%30.18 "Hg5 mi
7:00 AM46 °FPassing clouds.No wind93%30.18 "Hg5 mi
6:30 AM45 °FPassing clouds.No wind93%30.18 "HgN/A
6:00 AM45 °FPassing clouds.No wind93%30.18 "HgN/A
5:30 AM45 °FPassing clouds.No wind93%30.15 "HgN/A
5:00 AM46 °FPassing clouds.No wind87%30.15 "HgN/A
4:30 AM46 °FPassing clouds.No wind87%30.15 "HgN/A
4:00 AM46 °FPassing clouds.No wind87%30.15 "HgN/A
3:30 AM46 °FPassing clouds.No wind87%30.15 "HgN/A
3:00 AM48 °FPassing clouds.No wind87%30.15 "HgN/A
2:00 AM46 °FPassing clouds.No wind87%30.15 "HgN/A
1:30 AM48 °FPassing clouds.No wind76%30.15 "HgN/A
1:00 AM50 °FPassing clouds.No wind82%30.15 "HgN/A
12:30 AM48 °FPassing clouds.No wind82%30.15 "HgN/A
12:00 AM52 °FPassing clouds.No wind77%30.18 "HgN/A
11:30 PM
Sat, Jul 30
48 °FPassing clouds.No wind76%30.18 "HgN/A
11:00 PM54 °FPassing clouds.No wind67%30.18 "HgN/A
10:30 PM52 °FPassing clouds.No wind72%30.18 "HgN/A
10:00 PM54 °FPassing clouds.No wind72%30.18 "HgN/A
9:30 PM57 °FPassing clouds.No wind67%30.18 "HgN/A
9:00 PM59 °FPassing clouds.No wind55%30.18 "HgN/A
8:30 PM61 °FPassing clouds.No wind52%30.15 "HgN/A
8:00 PM61 °FPassing clouds.No wind52%30.15 "HgN/A
7:30 PM61 °FPassing clouds.No wind52%30.15 "HgN/A
7:00 PM63 °FPassing clouds.No wind49%30.12 "HgN/A
6:30 PM61 °FPassing clouds.No wind48%30.12 "HgN/A
6:00 PM66 °FPassing clouds.No wind35%30.12 "HgN/A
5:30 PM68 °FScattered clouds.No wind33%30.12 "HgN/A
5:00 PM72 °FPassing clouds.No wind29%30.12 "HgN/A
4:30 PM75 °FPassing clouds.No wind24%30.09 "HgN/A
4:00 PM73 °FPassing clouds.No wind25%30.09 "HgN/A
3:30 PM73 °FPassing clouds.No wind27%30.09 "HgN/A
3:00 PM73 °FPassing clouds.No wind27%30.09 "HgN/A
2:30 PM73 °FPassing clouds.No wind29%30.12 "HgN/A
2:00 PM73 °FPassing clouds.No wind29%30.12 "HgN/A
1:30 PM73 °FPassing clouds.No wind31%30.12 "HgN/A
1:00 PM73 °FPassing clouds.No wind36%30.12 "HgN/A
12:30 PM73 °FScattered clouds.2 mph36%30.15 "HgN/A
12:00 PM70 °FScattered clouds.No wind40%30.15 "HgN/A
11:30 AM72 °FPassing clouds.No wind47%30.18 "HgN/A
11:00 AM70 °FPassing clouds.No wind50%30.18 "HgN/A
10:30 AM66 °FPassing clouds.No wind56%30.21 "Hg6 mi
10:00 AM64 °FPassing clouds.No wind68%30.21 "Hg5 mi
9:30 AM61 °FPassing clouds.No wind72%30.21 "Hg5 mi
9:00 AM59 °FPassing clouds.No wind77%30.21 "Hg5 mi
8:30 AM55 °FPassing clouds.No wind88%30.21 "Hg5 mi
8:00 AM54 °FPassing clouds.No wind100%30.21 "Hg5 mi
Weather by CustomWeather, © 2016

See weather overviewHow to use our weather pages